Showing default

USA 270, 41744

Orbit data source: Space-Track

USA 270, 41744 is a payload satellite owned by USAF AFSPC (US) in GEO that was launched on Fri, 19 Aug 2016 UTC via a DELTA 4M+(4,2) launch vehicle from the Air Force Eastern Test Range (AFETR). Payload-class satellites include a variety of spacecraft equipped with specific instruments for various scientific and technological missions. These include communications satellites like Starlink; space stations such as the ISS; scientific satellites like the Hubble; Earth observation satellites from companies like Planet Labs, Umbra, and HawkEye 360; GPS; miniature CubeSats for education and research; and military/defense satellites.

Not visible in the next 10 days
Identifier
41744, 2016-052A
Orbit
GEO
Country
Flag of USUS
Related business
Manufacturer
OATK SSG
Mission
Operational Defense Classified
Bus & Motor
GEOSTAR-1, AOCS
Mass
500 kg wet, 500 kg dry
Launch date (UTC)
2016-08-19 (10 years ago)
Launch vehicle
DELTA 4M+(4,2)
Launch site
Air Force Eastern Test Range (AFETR)
Object type
Payload
Rocket body
Debris
Shape & HBR
Box + 2 Pan, 2.5 m
Radar Cross Section
7.621 m²

Expand to show TLE details & history
Last TLE update: 2 weeks ago

TLE from 2 weeks ago
0 USA 270
1 41744U 16052A   26111.25336792  .00000060  00000-0  00000+0 0  9997
2 41744   4.0526  77.8945 0003438 320.1673  82.4480  1.00347865 27569
Epoch: 2026-04-21T06:04Z
TLE epoch observation values (Epoch: 2026-04-21T06:04:50.988Z)
Latitude
2.73432°
Longitude
179.93413°
Altitude
35,762.567 km
Speed
3.076 km/s
True Right ascension
08h 01m 54s
True Declination
2° 43' 54"
Sunlit
Object was in daylight at epoch
Visualization orbit readout
Latitude
Unknown
Longitude
Unknown
Altitude
Unknown
Speed
Unknown
Apparent Right ascension
Unknown
Apparent Declination
Unknown
Sunlit
N/A
Visualization observer readout
Local Sidereal Time
23:33:52
Azimuth
Unknown
Elevation
Unknown
Doppler factor
Unknown
Orbital elements
Apogee altitude
35,780.833 km
Perigee altitude
35,751.854 km
Semi-major axis
42,144.481 km
Eccentricity
0.00034
Inclination
4.0526°
RAAN
77.8945°
Arg. of periapsis
320.1673°
True anomaly
82.48706°
Mean anomaly
82.448°
Eccentric anomaly
82.46753°
Mean motion
0.25086 °/min
Orbital period
1,435.06 mins
BSTAR
0
Loading maneuver chart data...
Computing Atmospheric mass density...
Loading historical data...
Loading historical data...
Loading historical data...
Loading historical data...
Loading historical data...
Loading historical data...
Loading historical data...
Other satellites on launch #52 in the year 2016 (2016-08-19 UTC)

Documentation

Showing up to 5 results
|